Regional Weather Roundup
Issued by NWS

Home | Current Version | Previous Version | Graphics & Text | Print | Product List | Glossary On
Versions: 1 2 3 4 5 6 7 8 9 10 11 12 13 14 15 16 17 18 19 20 21 22 23 24 25 26 27 28 29 30 31 32 33 34 35 36 37 38 39 40 41 42 43 44 45 46 47 48 49 50
000
ASUS43 KDMX 211106
RWRIA

WEATHER ROUNDUP FOR IOWA
NATIONAL WEATHER SERVICE DES MOINES IA
600 AM CDT SAT APR 21 2018

NOTE: "FAIR" INDICATES FEW OR NO CLOUDS BELOW 12,000 FEET WITH NO
SIGNIFICANT WEATHER AND/OR OBSTRUCTIONS TO VISIBILITY.

* - THESE STATIONS ARE NOT NWS STATIONS...THUS NOT UNDER NWS
QUALITY CONTROL.  THEY ALSO DO NOT REPORT WEATHER SUCH
AS PRECIPITATION OR FOG.

IAZ001>003-012>014-020>022-031>034-043>046-211200-
   NORTHWEST IOWA

CITY           SKY/WX    TMP DP  RH WIND       PRES   REMARKS
CARROLL *      CLOUDY    41  36  81 N6        30.34S
CHEROKEE *     CLOUDY    37  32  81 CALM      30.34F
DENISON *      CLOUDY    43  36  75 NE10      30.33F
LE MARS *      CLOUDY    41  32  70 NE9       30.33S
ORANGE CITY *  CLOUDY    39  34  81 E9        30.33F WCI  33
SHELDON *      CLOUDY    39  32  75 E10       30.33F WCI  32
SIOUX CITY     CLOUDY    42  33  70 E7        30.31S
SPENCER        CLOUDY    37  29  72 E7        30.37F WCI  32
STORM LAKE *   CLOUDY    37  32  81 NE7       30.34F WCI  32
$$

IAZ055>058-069>071-079>083-090>094-211200-
   SOUTHWEST IOWA

CITY           SKY/WX    TMP DP  RH WIND       PRES   REMARKS
ATLANTIC *     CLOUDY    45  34  65 NE9       30.31F
AUDUBON *      CLOUDY    43  36  75 CALM      30.33S
CLARINDA *     CLOUDY    48  25  40 VRB5      30.30F
COUNCIL BLFS * CLOUDY    46  30  53 E10G16    30.30R
CRESTON *      CLOUDY    45  28  53 NE12      30.32F
HARLAN  *      CLOUDY    45  34  65 N5        30.34F
LAMONI         CLOUDY    44  27  51 NE7       30.31F
RED OAK *      CLOUDY    48  27  43 NE8G15    30.30R
SHENANDOAH *   CLOUDY    46  27  46 NE6       30.28F
$$

IAZ047>049-059>061-072>074-084-211200-
   CENTRAL IOWA

CITY           SKY/WX    TMP DP  RH WIND       PRES   REMARKS
AMES           CLOUDY    43  34  70 NE5       30.37R
ANKENY *       CLOUDY    41  36  81 N5        30.37S
BOONE *        CLOUDY    41  34  75 E13       30.34F
CHARITON *     CLOUDY    45  25  45 NE6       30.34S
DES MOINES     CLOUDY    46  32  58 E7        30.36R
GRINNELL*      CLOUDY    43  32  65 E7        30.38R
KNOXVILLE *    CLOUDY    46  25  42 NE6       30.35R
MARSHALLTOWN   CLOUDY    42  35  76 NE8       30.37F
NEWTON *       CLOUDY    43  32  65 NE8       30.37R
PELLA *        CLOUDY    44  26  49 NE3       30.37R
PERRY *        FAIR      42  29  61 E6        30.34F
$$

IAZ004>006-015-016-023>025-035-036-211200-
   NORTH CENTRAL IOWA

CITY           SKY/WX    TMP DP  RH WIND       PRES   REMARKS
ALGONA *       CLOUDY    36  30  80 NE8       30.38F WCI  29
CLARION *      CLOUDY    39  32  75 E12       30.37F WCI  32
ESTHERVILLE    CLOUDY    35  28  75 NE5       30.38F WCI  31
FORT DODGE *   CLOUDY    39  34  82 CALM      30.37S
MASON CITY     CLOUDY    39  29  67 SE3       30.40S
FOREST CITY *  CLOUDY    39  30  70 SE3       30.40S
WEBSTER CITY * CLOUDY    41  34  75 E6        30.35F
IOWA FALLS *   CLOUDY    40  34  77 NE7       30.38F
$$

IAZ007>011-017>019-026>030-037>042-050>054-066-211200-
   NORTHEAST IOWA

CITY           SKY/WX    TMP DP  RH WIND       PRES   REMARKS
CEDAR RAPIDS   FAIR      46  27  47 E7        30.38S
CHARLES CITY * CLOUDY    41  30  65 E7        30.40F
CLINTON *      FAIR      44  23  43 SE3       30.42R
DECORAH *      CLOUDY    36  30  80 N6        30.40F WCI  31
DUBUQUE        CLOUDY    44  22  41 S9        30.41R
MONTICELLO *   CLOUDY    43  30  61 CALM      30.41R
OELWEIN *      CLOUDY    43  36  75 E5        30.40S
WATERLOO       CLOUDY    39  35  86 N3        30.39F
$$

IAZ064-065-067-068-078-211200-
   EAST CENTRAL IOWA

CITY           SKY/WX    TMP DP  RH WIND       PRES   REMARKS
DAVENPORT      FAIR      44  24  45 E9        30.42R
IOWA CITY      FAIR      46  28  49 NE5       30.40S
MT. PLEASANT * CLOUDY    41  28  60 NE7       30.37F
MUSCATINE *    FAIR      43  30  61 NE3       30.40S
QUAD CITIES    FAIR      45  25  45 E8        30.40R
$$

IAZ062-063-075>077-085>089-095>099-211200-
   SOUTHEAST IOWA

CITY           SKY/WX    TMP DP  RH WIND       PRES   REMARKS
BURLINGTON     MOCLDY    46  26  45 E7        30.36F
FAIRFIELD *    CLOUDY    43  27  52 E9        30.35F
FORT MADISON * CLOUDY    45  28  53 E5        30.37F
KEOKUK *       CLOUDY    46  27  46 E12       30.35S
OSKALOOSA *    FAIR      42  27  55 E7        30.36R
CENTERVILLE *    N/A     43  25  49 CALM      30.34S
OTTUMWA        CLOUDY    43  27  53 E7        30.35F
WASHINGTON *   CLOUDY    43  28  56 E5        30.39S
$$

ABBREVIATIONS USED IN REMARKS
   TC - TEMPERATURES IN CELSIUS
  WCI - WIND CHILL INDEX
   HX - HEAT INDEX
  VSB - VISIBILITY
$$





USA.gov is the U.S. government's official web portal to all federal, state and local government web resources and services.